Total_Precipitation_Accumulation
1.65 1.64 1.66 1.70 1.65 1.71 1.71 1.61 1.38 1.19 1.04 0.89 0.75 0.77 0.82 0.84 0.94 1.01 1.20 1.22 1.12 1.29 1.59 1.79 1.75 1.70 1.62 1.49 1.37 1.30 1.24 1.17 1.01 0.86 0.70 0.60 0.55 0.50 0.46 0.44 0.43 0.42 0.43
1.96 1.93 2.00 2.01 1.82 1.82 1.91 1.94 1.76 1.54 1.30 1.13 0.98 0.92 0.90 0.88 0.98 1.11 1.28 1.38 1.30 1.28 1.60 1.94 2.06 2.08 2.00 1.89 1.73 1.52 1.41 1.33 1.22 1.07 0.94 0.78 0.69 0.64 0.59 0.53 0.49 0.44 0.42
2.25 2.20 2.30 2.31 2.01 1.93 2.06 2.16 2.07 1.92 1.58 1.34 1.27 1.24 1.18 1.17 1.17 1.25 1.40 1.54 1.56 1.49 1.59 1.69 1.80 1.91 1.95 1.95 1.91 1.79 1.63 1.46 1.34 1.23 1.16 1.04 0.90 0.81 0.73 0.65 0.60 0.56 0.50
2.34 2.35 2.28 2.18 2.12 2.19 2.37 2.53 2.44 2.36 2.09 1.84 1.69 1.49 1.37 1.34 1.29 1.40 1.42 1.48 1.76 1.71 1.62 1.47 1.51 1.66 1.80 1.97 2.05 2.00 1.90 1.71 1.52 1.39 1.31 1.23 1.10 0.92 0.81 0.75 0.72 0.68 0.61
2.46 2.55 2.55 2.51 2.45 2.49 2.55 2.51 2.65 2.49 2.52 2.33 1.93 1.68 1.52 1.47 1.51 1.52 1.53 1.54 1.65 1.76 1.72 1.58 1.50 1.55 1.61 1.79 1.93 2.10 2.13 1.99 1.77 1.58 1.47 1.42 1.30 1.13 0.97 0.89 0.82 0.74 0.68
2.84 2.89 2.86 2.92 2.95 2.99 2.83 2.75 2.72 2.54 2.44 2.37 2.04 1.86 1.75 1.61 1.53 1.51 1.47 1.47 1.52 1.48 1.51 1.52 1.55 1.46 1.50 1.57 1.70 1.96 2.16 2.20 2.13 1.93 1.75 1.66 1.54 1.34 1.15 1.02 0.95 0.90 0.84
3.39 3.38 3.38 3.34 3.23 3.16 3.02 2.85 2.67 2.57 2.41 2.19 2.12 1.88 1.61 1.42 1.31 1.26 1.29 1.34 1.29 1.24 1.29 1.41 1.50 1.46 1.40 1.37 1.45 1.73 2.00 2.19 2.24 2.13 1.97 1.85 1.66 1.48 1.34 1.21 1.10 1.00 0.94
4.05 3.86 3.78 3.57 3.26 3.08 2.96 2.78 2.61 2.48 2.27 2.10 2.05 2.00 1.67 1.44 1.19 1.03 1.06 1.07 1.11 1.16 1.17 1.14 1.22 1.22 1.18 1.17 1.21 1.42 1.57 1.71 1.87 2.03 2.08 1.96 1.78 1.62 1.52 1.44 1.39 1.30 1.19
4.15 3.87 3.57 3.38 3.16 2.98 2.84 2.76 2.61 2.48 2.29 2.11 1.97 2.04 1.92 1.68 1.34 1.17 1.05 1.01 1.02 1.06 1.06 1.00 0.99 0.98 0.97 1.01 1.10 1.23 1.36 1.43 1.54 1.73 1.90 1.92 1.81 1.72 1.65 1.61 1.60 1.60 1.61
3.82 3.38 3.14 3.13 2.97 2.76 2.58 2.40 2.24 2.18 2.13 2.04 1.94 1.80 1.74 1.67 1.54 1.38 1.24 1.20 1.14 1.10 1.09 1.07 1.08 1.07 1.04 1.04 1.09 1.15 1.16 1.15 1.23 1.34 1.52 1.66 1.65 1.63 1.65 1.72 1.86 1.98 1.99
3.29 3.01 2.79 2.79 2.70 2.45 2.20 1.95 1.78 1.71 1.72 1.77 1.75 1.69 1.61 1.54 1.39 1.28 1.26 1.21 1.19 1.15 1.10 1.09 1.10 1.10 1.07 1.03 0.99 1.08 1.14 1.10 1.15 1.23 1.33 1.48 1.58 1.64 1.68 1.77 1.87 1.97 2.04
2.74 2.48 2.22 2.08 1.95 1.78 1.66 1.55 1.43 1.39 1.37 1.44 1.49 1.45 1.44 1.42 1.38 1.34 1.27 1.18 1.18 1.26 1.16 1.03 0.97 0.94 0.95 0.97 1.01 1.17 1.10 1.09 1.12 1.17 1.17 1.20 1.27 1.42 1.55 1.63 1.68 1.79 1.92
2.08 1.84 1.65 1.52 1.44 1.35 1.30 1.29 1.27 1.24 1.16 1.14 1.16 1.20 1.21 1.16 1.17 1.24 1.32 1.34 1.27 1.25 1.23 1.15 1.00 0.91 0.89 0.90 1.01 1.15 1.08 1.03 1.03 1.02 1.00 1.00 1.02 1.08 1.13 1.21 1.36 1.49 1.63
1.51 1.39 1.23 1.14 1.12 1.14 1.11 1.09 1.05 1.00 0.94 0.86 0.84 0.88 0.93 0.94 1.02 1.17 1.26 1.38 1.45 1.34 1.17 1.12 1.05 0.94 0.89 0.88 1.05 1.09 0.99 0.95 0.92 0.90 0.89 0.87 0.85 0.84 0.86 0.88 0.94 1.01 1.13
1.07 0.99 0.90 0.87 0.84 0.80 0.75 0.72 0.71 0.73 0.75 0.75 0.72 0.72 0.75 0.78 0.87 1.00 1.08 1.20 1.34 1.35 1.20 1.03 1.01 0.97 0.88 0.93 1.15 1.00 0.92 0.95 0.85 0.77 0.73 0.72 0.72 0.71 0.71 0.70 0.69 0.72 0.77
0.67 0.63 0.59 0.58 0.59 0.61 0.58 0.56 0.57 0.61 0.63 0.64 0.67 0.65 0.64 0.64 0.71 0.79 0.87 0.95 1.07 1.19 1.15 0.94 0.85 0.83 0.82 0.84 1.06 0.93 0.95 0.96 0.79 0.67 0.62 0.61 0.61 0.61 0.60 0.61 0.61 0.63 0.66
0.51 0.49 0.48 0.47 0.48 0.51 0.55 0.58 0.61 0.62 0.68 0.66 0.65 0.63 0.60 0.59 0.62 0.65 0.72 0.79 0.89 0.97 1.07 0.97 0.83 0.79 0.80 0.83 0.89 0.80 0.78 0.74 0.69 0.68 0.58 0.55 0.53 0.55 0.52 0.51 0.54 0.56 0.58
0.47 0.48 0.48 0.46 0.43 0.42 0.45 0.51 0.56 0.59 0.66 0.65 0.64 0.63 0.58 0.57 0.60 0.61 0.64 0.68 0.78 0.90 1.02 1.04 0.92 0.83 0.78 0.76 0.75 0.72 0.62 0.59 0.61 0.70 0.60 0.53 0.50 0.48 0.51 0.47 0.44 0.47 0.53
0.43 0.41 0.40 0.39 0.38 0.38 0.38 0.38 0.42 0.46 0.52 0.57 0.59 0.65 0.64 0.62 0.59 0.60 0.64 0.67 0.77 0.88 0.99 1.02 0.95 0.87 0.84 0.81 0.85 0.80 0.72 0.76 0.65 0.65 0.60 0.55 0.51 0.49 0.69 0.72 0.47 0.42 0.46
0.37 0.34 0.30 0.28 0.29 0.29 0.28 0.27 0.27 0.30 0.36 0.40 0.45 0.58 0.63 0.63 0.61 0.65 0.70 0.72 0.78 0.88 0.94 0.96 0.91 0.84 0.83 0.84 0.90 0.95 0.92 0.85 0.74 0.55 0.59 0.56 0.52 0.53 0.88 1.42 0.88 0.56 0.50
0.33 0.31 0.28 0.24 0.21 0.21 0.22 0.22 0.22 0.22 0.30 0.33 0.36 0.45 0.53 0.57 0.58 0.59 0.62 0.68 0.78 0.90 0.95 0.99 0.93 0.87 0.82 0.90 0.95 0.93 0.89 0.88 0.76 0.63 0.65 0.61 0.74 1.04 1.56 2.20 1.74 1.08 0.81
0.36 0.30 0.26 0.24 0.20 0.18 0.21 0.21 0.21 0.25 0.31 0.36 0.41 0.44 0.45 0.48 0.47 0.44 0.49 0.58 0.70 0.84 0.97 1.03 0.99 0.95 0.87 0.90 0.96 0.96 0.96 0.96 0.91 0.68 0.66 0.69 0.93 1.67 2.35 2.70 2.27 1.45 1.10
0.35 0.31 0.26 0.25 0.23 0.17 0.15 0.15 0.18 0.27 0.37 0.43 0.46 0.46 0.40 0.41 0.48 0.49 0.48 0.52 0.62 0.71 0.86 1.04 1.09 0.98 0.90 0.91 1.02 1.06 1.02 1.01 1.00 0.81 0.81 0.86 1.11 1.94 2.25 2.44 2.23 1.53 1.22
0.33 0.32 0.27 0.24 0.25 0.18 0.14 0.14 0.17 0.23 0.29 0.32 0.32 0.38 0.45 0.50 0.46 0.45 0.44 0.53 0.63 0.74 0.81 0.88 0.98 0.90 0.83 0.86 0.95 0.99 0.95 0.93 0.88 0.81 0.82 0.97 1.22 1.80 1.87 1.99 2.03 1.57 1.28
0.36 0.32 0.28 0.26 0.28 0.23 0.17 0.14 0.16 0.23 0.26 0.25 0.23 0.27 0.33 0.37 0.37 0.43 0.52 0.66 0.70 0.82 0.88 1.02 1.01 0.91 0.86 0.85 0.76 0.77 0.95 1.06 1.01 0.81 0.75 0.91 1.16 1.45 1.54 1.65 1.63 1.50 1.37
0.33 0.29 0.28 0.29 0.27 0.25 0.17 0.14 0.15 0.18 0.24 0.23 0.26 0.30 0.29 0.26 0.30 0.39 0.53 0.71 0.83 0.89 1.01 1.20 1.15 1.10 1.00 0.92 0.79 0.76 0.99 1.16 1.15 0.97 0.76 0.82 1.01 1.16 1.37 1.41 1.33 1.27 1.34